Year,Month,Day,Hour,Minute,Value (Times are PST for temperature in C)
2016,08,15,00,00,13.30
2016,08,15,00,01,13.30
2016,08,15,00,02,13.20
2016,08,15,00,03,13.20
2016,08,15,00,04,13.20
2016,08,15,00,05,13.20
2016,08,15,00,06,13.20
2016,08,15,00,07,13.20
2016,08,15,00,08,13.20
2016,08,15,00,09,13.20
2016,08,15,00,10,13.20
2016,08,15,00,11,13.20
2016,08,15,00,12,13.20
2016,08,15,00,13,13.20
2016,08,15,00,14,13.20
2016,08,15,00,15,13.20
2016,08,15,00,16,13.20
2016,08,15,00,17,13.20
2016,08,15,00,18,13.20
2016,08,15,00,19,13.20
2016,08,15,00,20,13.20
2016,08,15,00,21,13.20
2016,08,15,00,22,13.20
2016,08,15,00,23,13.20
2016,08,15,00,24,13.10
2016,08,15,00,25,13.10
2016,08,15,00,26,13.10
2016,08,15,00,27,13.10
2016,08,15,00,28,13.10
2016,08,15,00,29,13.10
2016,08,15,00,30,13.10
2016,08,15,00,31,13.10
2016,08,15,00,32,13.10
2016,08,15,00,33,13.10
2016,08,15,00,34,13.10
2016,08,15,00,35,13.10
2016,08,15,00,36,13.10
2016,08,15,00,37,13.10
2016,08,15,00,38,13.10
2016,08,15,00,39,13.10
2016,08,15,00,40,13.10
2016,08,15,00,41,13.10
2016,08,15,00,42,13.10
2016,08,15,00,43,13.10
2016,08,15,00,44,13.10
2016,08,15,00,45,13.10
2016,08,15,00,46,13.00
2016,08,15,00,47,13.10
2016,08,15,00,48,13.00
2016,08,15,00,49,13.10
2016,08,15,00,50,13.10
2016,08,15,00,51,13.00
2016,08,15,00,52,13.00
2016,08,15,00,53,13.00
2016,08,15,00,54,13.00
2016,08,15,00,55,13.00
2016,08,15,00,56,13.00
2016,08,15,00,57,13.00
2016,08,15,00,58,13.00
2016,08,15,00,59,13.00
2016,08,15,01,00,13.00
2016,08,15,01,01,13.00
2016,08,15,01,02,13.00
2016,08,15,01,03,13.00
2016,08,15,01,04,13.00
2016,08,15,01,05,13.00
2016,08,15,01,06,13.00
2016,08,15,01,07,13.00
2016,08,15,01,08,13.00
2016,08,15,01,09,12.90
2016,08,15,01,10,12.90
2016,08,15,01,11,12.90
2016,08,15,01,12,12.90
2016,08,15,01,13,12.90
2016,08,15,01,14,12.90
2016,08,15,01,15,12.90
2016,08,15,01,16,12.90
2016,08,15,01,17,12.90
2016,08,15,01,18,12.90
2016,08,15,01,19,12.90
2016,08,15,01,20,12.90
2016,08,15,01,21,12.90
2016,08,15,01,22,12.90
2016,08,15,01,23,12.90
2016,08,15,01,24,12.90
2016,08,15,01,25,12.90
2016,08,15,01,26,12.90
2016,08,15,01,27,12.90
2016,08,15,01,28,12.90
2016,08,15,01,29,12.90
2016,08,15,01,30,12.90
2016,08,15,01,31,12.90
2016,08,15,01,32,12.90
2016,08,15,01,33,12.90
2016,08,15,01,34,12.90
2016,08,15,01,35,12.90
2016,08,15,01,36,12.90
2016,08,15,01,37,12.90
2016,08,15,01,38,12.90
2016,08,15,01,39,12.90
2016,08,15,01,40,12.90
2016,08,15,01,41,12.90
2016,08,15,01,42,12.90
2016,08,15,01,43,12.90
2016,08,15,01,44,12.90
2016,08,15,01,45,12.90
2016,08,15,01,46,12.90
2016,08,15,01,47,12.90
2016,08,15,01,48,12.80
2016,08,15,01,49,12.80
2016,08,15,01,50,12.80
2016,08,15,01,51,12.80
2016,08,15,01,52,12.80
2016,08,15,01,53,12.80
2016,08,15,01,54,12.80
2016,08,15,01,55,12.80
2016,08,15,01,56,12.80
2016,08,15,01,57,12.80
2016,08,15,01,58,12.80
2016,08,15,01,59,12.80
2016,08,15,02,00,12.80
2016,08,15,02,01,12.80
2016,08,15,02,02,12.80
2016,08,15,02,03,12.80
2016,08,15,02,04,12.80
2016,08,15,02,05,12.80
2016,08,15,02,06,12.80
2016,08,15,02,07,12.80
2016,08,15,02,08,12.80
2016,08,15,02,09,12.80
2016,08,15,02,10,12.70
2016,08,15,02,11,12.70
2016,08,15,02,12,12.70
2016,08,15,02,13,12.70
2016,08,15,02,14,12.70
2016,08,15,02,15,12.70
2016,08,15,02,16,12.70
2016,08,15,02,17,12.70
2016,08,15,02,18,12.70
2016,08,15,02,19,12.70
2016,08,15,02,20,12.70
2016,08,15,02,21,12.70
2016,08,15,02,22,12.70
2016,08,15,02,23,12.70
2016,08,15,02,24,12.70
2016,08,15,02,25,12.70
2016,08,15,02,26,12.70
2016,08,15,02,27,12.60
2016,08,15,02,28,12.60
2016,08,15,02,29,12.60
2016,08,15,02,30,12.60
2016,08,15,02,31,12.60
2016,08,15,02,32,12.60
2016,08,15,02,33,12.60
2016,08,15,02,34,12.60
2016,08,15,02,35,12.60
2016,08,15,02,36,12.60
2016,08,15,02,37,12.60
2016,08,15,02,38,12.50
2016,08,15,02,39,12.50
2016,08,15,02,40,12.50
2016,08,15,02,41,12.50
2016,08,15,02,42,12.50
2016,08,15,02,43,12.40
2016,08,15,02,44,12.40
2016,08,15,02,45,12.40
2016,08,15,02,46,12.40
2016,08,15,02,47,12.40
2016,08,15,02,48,12.40
2016,08,15,02,49,12.40
2016,08,15,02,50,12.40
2016,08,15,02,51,12.40
2016,08,15,02,52,12.40
2016,08,15,02,53,12.40
2016,08,15,02,54,12.40
2016,08,15,02,55,12.40
2016,08,15,02,56,12.40
2016,08,15,02,57,12.40
2016,08,15,02,58,12.40
2016,08,15,02,59,12.30
2016,08,15,03,00,12.30
2016,08,15,03,01,12.30
2016,08,15,03,02,12.30
2016,08,15,03,03,12.30
2016,08,15,03,04,12.30
2016,08,15,03,05,12.30
2016,08,15,03,06,12.30
2016,08,15,03,07,12.30
2016,08,15,03,08,12.30
2016,08,15,03,09,12.30
2016,08,15,03,10,12.30
2016,08,15,03,11,12.30
2016,08,15,03,12,12.30
2016,08,15,03,13,12.30
2016,08,15,03,14,12.30
2016,08,15,03,15,12.30
2016,08,15,03,16,12.30
2016,08,15,03,17,12.30
2016,08,15,03,18,12.30
2016,08,15,03,19,12.30
2016,08,15,03,20,12.30
2016,08,15,03,21,12.30
2016,08,15,03,22,12.30
2016,08,15,03,23,12.20
2016,08,15,03,24,12.20
2016,08,15,03,25,12.20
2016,08,15,03,26,12.20
2016,08,15,03,27,12.20
2016,08,15,03,28,12.20
2016,08,15,03,29,12.20
2016,08,15,03,30,12.20
2016,08,15,03,31,12.20
2016,08,15,03,32,12.10
2016,08,15,03,33,12.10
2016,08,15,03,34,12.10
2016,08,15,03,35,12.10
2016,08,15,03,36,12.10
2016,08,15,03,37,12.10
2016,08,15,03,38,12.10
2016,08,15,03,39,12.10
2016,08,15,03,40,12.10
2016,08,15,03,41,12.10
2016,08,15,03,42,12.10
2016,08,15,03,43,12.10
2016,08,15,03,44,12.10
2016,08,15,03,45,12.10
2016,08,15,03,46,12.10
2016,08,15,03,47,12.10
2016,08,15,03,48,12.10
2016,08,15,03,49,12.10
2016,08,15,03,50,12.10
2016,08,15,03,51,12.10
2016,08,15,03,52,12.10
2016,08,15,03,53,12.10
2016,08,15,03,54,12.10
2016,08,15,03,55,12.00
2016,08,15,03,56,12.00
2016,08,15,03,57,12.00
2016,08,15,03,58,12.00
2016,08,15,03,59,12.00
2016,08,15,04,00,12.00
2016,08,15,04,01,12.00
2016,08,15,04,02,12.00
2016,08,15,04,03,12.00
2016,08,15,04,04,12.00
2016,08,15,04,05,12.00
2016,08,15,04,06,12.00
2016,08,15,04,07,12.00
2016,08,15,04,08,12.00
2016,08,15,04,09,12.00
2016,08,15,04,10,12.00
2016,08,15,04,11,12.00
2016,08,15,04,12,12.00
2016,08,15,04,13,12.00
2016,08,15,04,14,12.00
2016,08,15,04,15,12.00
2016,08,15,04,16,12.00
2016,08,15,04,17,12.00
2016,08,15,04,18,12.00
2016,08,15,04,19,11.90
2016,08,15,04,20,11.90
2016,08,15,04,21,11.90
2016,08,15,04,22,11.90
2016,08,15,04,23,11.90
2016,08,15,04,24,11.90
2016,08,15,04,25,11.90
2016,08,15,04,26,11.90
2016,08,15,04,27,11.80
2016,08,15,04,28,11.80
2016,08,15,04,29,11.80
2016,08,15,04,30,11.80
2016,08,15,04,31,11.80
2016,08,15,04,32,11.70
2016,08,15,04,33,11.70
2016,08,15,04,34,11.70
2016,08,15,04,35,11.70
2016,08,15,04,36,11.70
2016,08,15,04,37,11.70
2016,08,15,04,38,11.70
2016,08,15,04,39,11.70
2016,08,15,04,40,11.70
2016,08,15,04,41,11.60
2016,08,15,04,42,11.60
2016,08,15,04,43,11.60
2016,08,15,04,44,11.60
2016,08,15,04,45,11.60
2016,08,15,04,46,11.50
2016,08,15,04,47,11.50
2016,08,15,04,48,11.50
2016,08,15,04,49,11.50
2016,08,15,04,50,11.50
2016,08,15,04,51,11.50
2016,08,15,04,52,11.50
2016,08,15,04,53,11.40
2016,08,15,04,54,11.40
2016,08,15,04,55,11.40
2016,08,15,04,56,11.40
2016,08,15,04,57,11.40
2016,08,15,04,58,11.40
2016,08,15,04,59,11.30
2016,08,15,05,00,11.30
2016,08,15,05,01,11.30
2016,08,15,05,02,11.30
2016,08,15,05,03,11.30
2016,08,15,05,04,11.30
2016,08,15,05,05,11.30
2016,08,15,05,06,11.20
2016,08,15,05,07,11.20
2016,08,15,05,08,11.20
2016,08,15,05,09,11.20
2016,08,15,05,10,11.20
2016,08,15,05,11,11.20
2016,08,15,05,12,11.20
2016,08,15,05,13,11.20
2016,08,15,05,14,11.20
2016,08,15,05,15,11.20
2016,08,15,05,16,11.20
2016,08,15,05,17,11.20
2016,08,15,05,18,11.20
2016,08,15,05,19,11.20
2016,08,15,05,20,11.20
2016,08,15,05,21,11.20
2016,08,15,05,22,11.20
2016,08,15,05,23,11.20
2016,08,15,05,24,11.20
2016,08,15,05,25,11.20
2016,08,15,05,26,11.10
2016,08,15,05,27,11.10
2016,08,15,05,28,11.10
2016,08,15,05,29,11.10
2016,08,15,05,30,11.10
2016,08,15,05,31,11.10
2016,08,15,05,32,11.10
2016,08,15,05,33,11.10
2016,08,15,05,34,11.10
2016,08,15,05,35,11.00
2016,08,15,05,36,11.00
2016,08,15,05,37,11.00
2016,08,15,05,38,11.00
2016,08,15,05,39,11.00
2016,08,15,05,40,11.00
2016,08,15,05,41,11.00
2016,08,15,05,42,11.00
2016,08,15,05,43,11.00
2016,08,15,05,44,11.00
2016,08,15,05,45,11.00
2016,08,15,05,46,11.00
2016,08,15,05,47,11.10
2016,08,15,05,48,11.00
2016,08,15,05,49,11.00
2016,08,15,05,50,11.00
2016,08,15,05,51,11.00
2016,08,15,05,52,11.00
2016,08,15,05,53,10.90
2016,08,15,05,54,10.90
2016,08,15,05,55,10.90
2016,08,15,05,56,10.90
2016,08,15,05,57,10.90
2016,08,15,05,58,10.90
2016,08,15,05,59,10.80
2016,08,15,06,00,10.80
2016,08,15,06,01,10.80
2016,08,15,06,02,10.80
2016,08,15,06,03,10.80
2016,08,15,06,04,10.80
2016,08,15,06,05,10.80
2016,08,15,06,06,10.80
2016,08,15,06,07,10.80
2016,08,15,06,08,10.80
2016,08,15,06,09,10.80
2016,08,15,06,10,10.80
2016,08,15,06,11,10.80
2016,08,15,06,12,10.80
2016,08,15,06,13,10.90
2016,08,15,06,14,10.90
2016,08,15,06,15,10.90
2016,08,15,06,16,10.90
2016,08,15,06,17,10.90
2016,08,15,06,18,10.90
2016,08,15,06,19,10.90
2016,08,15,06,20,10.90
2016,08,15,06,21,10.90
2016,08,15,06,22,10.90
2016,08,15,06,23,10.90
2016,08,15,06,24,10.90
2016,08,15,06,25,10.90
2016,08,15,06,26,10.90
2016,08,15,06,27,10.90
2016,08,15,06,28,10.90
2016,08,15,06,29,10.90
2016,08,15,06,30,10.90
2016,08,15,06,31,10.90
2016,08,15,06,32,10.90
2016,08,15,06,33,10.90
2016,08,15,06,34,10.90
2016,08,15,06,35,10.90
2016,08,15,06,36,10.90
2016,08,15,06,37,10.90
2016,08,15,06,38,11.00
2016,08,15,06,39,11.00
2016,08,15,06,40,11.00
2016,08,15,06,41,11.00
2016,08,15,06,42,11.00
2016,08,15,06,43,11.10
2016,08,15,06,44,11.10
2016,08,15,06,45,11.10
2016,08,15,06,46,11.10
2016,08,15,06,47,11.10
2016,08,15,06,48,11.10
2016,08,15,06,49,11.10
2016,08,15,06,50,11.10
2016,08,15,06,51,11.10
2016,08,15,06,52,11.10
2016,08,15,06,53,11.10
2016,08,15,06,54,11.10
2016,08,15,06,55,11.10
2016,08,15,06,56,11.10
2016,08,15,06,57,11.10
2016,08,15,06,58,11.10
2016,08,15,06,59,11.10
2016,08,15,07,00,11.20
2016,08,15,07,01,11.20
2016,08,15,07,02,11.20
2016,08,15,07,03,11.20
2016,08,15,07,04,11.20
2016,08,15,07,05,11.20
2016,08,15,07,06,11.30
2016,08,15,07,07,11.30
2016,08,15,07,08,11.30
2016,08,15,07,09,11.30
2016,08,15,07,10,11.40
2016,08,15,07,11,11.40
2016,08,15,07,12,11.40
2016,08,15,07,13,11.40
2016,08,15,07,14,11.50
2016,08,15,07,15,11.50
2016,08,15,07,16,11.60
2016,08,15,07,17,11.60
2016,08,15,07,18,11.70
2016,08,15,07,19,11.70
2016,08,15,07,20,11.70
2016,08,15,07,21,11.80
2016,08,15,07,22,11.80
2016,08,15,07,23,11.80
2016,08,15,07,24,11.90
2016,08,15,07,25,11.90
2016,08,15,07,26,12.00
2016,08,15,07,27,12.00
2016,08,15,07,28,12.10
2016,08,15,07,29,12.20
2016,08,15,07,30,12.30
2016,08,15,07,31,12.30
2016,08,15,07,32,12.40
2016,08,15,07,33,12.50
2016,08,15,07,34,12.60
2016,08,15,07,35,12.70
2016,08,15,07,36,12.70
2016,08,15,07,37,12.80
2016,08,15,07,38,12.80
2016,08,15,07,39,12.90
2016,08,15,07,40,12.90
2016,08,15,07,41,12.90
2016,08,15,07,42,13.00
2016,08,15,07,43,13.10
2016,08,15,07,44,13.10
2016,08,15,07,45,13.20
2016,08,15,07,46,13.20
2016,08,15,07,47,13.30
2016,08,15,07,48,13.30
2016,08,15,07,49,13.40
2016,08,15,07,50,13.50
2016,08,15,07,51,13.60
2016,08,15,07,52,13.60
2016,08,15,07,53,13.70
2016,08,15,07,54,13.80
2016,08,15,07,55,13.80
2016,08,15,07,56,13.80
2016,08,15,07,57,13.80
2016,08,15,07,58,13.80
2016,08,15,07,59,13.80
2016,08,15,08,00,13.80
2016,08,15,08,01,13.70
2016,08,15,08,02,13.70
2016,08,15,08,03,13.70
2016,08,15,08,04,13.60
2016,08,15,08,05,13.60
2016,08,15,08,06,13.60
2016,08,15,08,07,13.60
2016,08,15,08,08,13.70
2016,08,15,08,09,13.70
2016,08,15,08,10,13.70
2016,08,15,08,11,13.70
2016,08,15,08,12,13.70
2016,08,15,08,13,13.70
2016,08,15,08,14,13.80
2016,08,15,08,15,13.80
2016,08,15,08,16,13.80
2016,08,15,08,17,13.80
2016,08,15,08,18,13.90
2016,08,15,08,19,13.90
2016,08,15,08,20,13.90
2016,08,15,08,21,13.90
2016,08,15,08,22,13.90
2016,08,15,08,23,13.90
2016,08,15,08,24,13.90
2016,08,15,08,25,13.90
2016,08,15,08,26,13.90
2016,08,15,08,27,13.90
2016,08,15,08,28,13.90
2016,08,15,08,29,13.90
2016,08,15,08,30,13.90
2016,08,15,08,31,13.80
2016,08,15,08,32,13.80
2016,08,15,08,33,13.80
2016,08,15,08,34,13.80
2016,08,15,08,35,13.80
2016,08,15,08,36,13.80
2016,08,15,08,37,13.90
2016,08,15,08,38,13.90
2016,08,15,08,39,13.90
2016,08,15,08,40,13.90
2016,08,15,08,41,13.90
2016,08,15,08,42,13.90
2016,08,15,08,43,13.90
2016,08,15,08,44,13.90
2016,08,15,08,45,14.00
2016,08,15,08,46,14.00
2016,08,15,08,47,13.90
2016,08,15,08,48,13.80
2016,08,15,08,49,13.80
2016,08,15,08,50,13.80
2016,08,15,08,51,13.80
2016,08,15,08,52,13.80
2016,08,15,08,53,13.80
2016,08,15,08,54,13.80
2016,08,15,08,55,13.80
2016,08,15,08,56,13.80
2016,08,15,08,57,13.80
2016,08,15,08,58,13.80
2016,08,15,08,59,13.90
2016,08,15,09,00,13.90
2016,08,15,09,01,13.90
2016,08,15,09,02,14.00
2016,08,15,09,03,14.00
2016,08,15,09,04,14.00
2016,08,15,09,05,14.10
2016,08,15,09,06,14.10
2016,08,15,09,07,14.10
2016,08,15,09,08,14.10
2016,08,15,09,09,14.20
2016,08,15,09,10,14.30
2016,08,15,09,11,14.40
2016,08,15,09,12,14.50
2016,08,15,09,13,14.60
2016,08,15,09,14,14.70
2016,08,15,09,15,14.80
2016,08,15,09,16,14.80
2016,08,15,09,17,14.90
2016,08,15,09,18,14.90
2016,08,15,09,19,14.80
2016,08,15,09,20,14.80
2016,08,15,09,21,14.70
2016,08,15,09,22,14.50
2016,08,15,09,23,14.40
2016,08,15,09,24,14.20
2016,08,15,09,25,14.20
2016,08,15,09,26,14.20
2016,08,15,09,27,14.30
2016,08,15,09,28,14.30
2016,08,15,09,29,14.30
2016,08,15,09,30,14.30
2016,08,15,09,31,14.30
2016,08,15,09,32,14.30
2016,08,15,09,33,14.40
2016,08,15,09,34,14.40
2016,08,15,09,35,14.40
2016,08,15,09,36,14.50
2016,08,15,09,37,14.60
2016,08,15,09,38,14.70
2016,08,15,09,39,14.80
2016,08,15,09,40,15.00
2016,08,15,09,41,15.00
2016,08,15,09,42,15.00
2016,08,15,09,43,15.00
2016,08,15,09,44,15.10
2016,08,15,09,45,15.20
2016,08,15,09,46,15.30
2016,08,15,09,47,15.30
2016,08,15,09,48,15.40
2016,08,15,09,49,15.40
2016,08,15,09,50,15.50
2016,08,15,09,51,15.50
2016,08,15,09,52,15.60
2016,08,15,09,53,15.60
2016,08,15,09,54,15.70
2016,08,15,09,55,15.80
2016,08,15,09,56,15.80
2016,08,15,09,57,15.90
2016,08,15,09,58,16.00
2016,08,15,09,59,16.10
2016,08,15,10,00,16.10
2016,08,15,10,01,16.20
2016,08,15,10,02,16.20
2016,08,15,10,03,16.20
2016,08,15,10,04,16.20
2016,08,15,10,05,16.10
2016,08,15,10,06,16.20
2016,08,15,10,07,16.20
2016,08,15,10,08,16.40
2016,08,15,10,09,16.50
2016,08,15,10,10,16.60
2016,08,15,10,11,16.60
2016,08,15,10,12,16.50
2016,08,15,10,13,16.50
2016,08,15,10,14,16.50
2016,08,15,10,15,16.60
2016,08,15,10,16,16.70
2016,08,15,10,17,16.70
2016,08,15,10,18,16.80
2016,08,15,10,19,16.90
2016,08,15,10,20,16.90
2016,08,15,10,21,17.00
2016,08,15,10,22,17.00
2016,08,15,10,23,17.10
2016,08,15,10,24,17.10
2016,08,15,10,25,17.10
2016,08,15,10,26,17.10
2016,08,15,10,27,17.00
2016,08,15,10,28,16.80
2016,08,15,10,29,16.60
2016,08,15,10,30,16.40
2016,08,15,10,31,16.30
2016,08,15,10,32,16.10
2016,08,15,10,33,15.90
2016,08,15,10,34,15.70
2016,08,15,10,35,15.60
2016,08,15,10,36,15.50
2016,08,15,10,37,15.50
2016,08,15,10,38,15.40
2016,08,15,10,39,15.40
2016,08,15,10,40,15.30
2016,08,15,10,41,15.30
2016,08,15,10,42,15.20
2016,08,15,10,43,15.10
2016,08,15,10,44,15.10
2016,08,15,10,45,15.10
2016,08,15,10,46,15.00
2016,08,15,10,47,14.90
2016,08,15,10,48,14.90
2016,08,15,10,49,14.90
2016,08,15,10,50,15.00
2016,08,15,10,51,15.10
2016,08,15,10,52,15.20
2016,08,15,10,53,15.30
2016,08,15,10,54,15.40
2016,08,15,10,55,15.50
2016,08,15,10,56,15.50
2016,08,15,10,57,15.60
2016,08,15,10,58,15.70
2016,08,15,10,59,15.80
2016,08,15,11,00,15.90
2016,08,15,11,01,15.90
2016,08,15,11,02,15.90
2016,08,15,11,03,15.90
2016,08,15,11,04,16.00
2016,08,15,11,05,16.10
2016,08,15,11,06,16.20
2016,08,15,11,07,16.20
2016,08,15,11,08,16.30
2016,08,15,11,09,16.40
2016,08,15,11,10,16.30
2016,08,15,11,11,16.20
2016,08,15,11,12,16.20
2016,08,15,11,13,16.30
2016,08,15,11,14,16.40
2016,08,15,11,15,16.40
2016,08,15,11,16,16.40
2016,08,15,11,17,16.40
2016,08,15,11,18,16.50
2016,08,15,11,19,16.50
2016,08,15,11,20,16.50
2016,08,15,11,21,16.60
2016,08,15,11,22,16.60
2016,08,15,11,23,16.70
2016,08,15,11,24,16.60
2016,08,15,11,25,16.60
2016,08,15,11,26,16.60
2016,08,15,11,27,16.60
2016,08,15,11,28,16.70
2016,08,15,11,29,16.80
2016,08,15,11,30,16.90
2016,08,15,11,31,16.90
2016,08,15,11,32,16.90
2016,08,15,11,33,16.80
2016,08,15,11,34,16.80
2016,08,15,11,35,16.70
2016,08,15,11,36,16.60
2016,08,15,11,37,16.60
2016,08,15,11,38,16.60
2016,08,15,11,39,16.60
2016,08,15,11,40,16.40
2016,08,15,11,41,16.40
2016,08,15,11,42,16.50
2016,08,15,11,43,16.60
2016,08,15,11,44,16.70
2016,08,15,11,45,16.80
2016,08,15,11,46,16.90
2016,08,15,11,47,17.00
2016,08,15,11,48,17.00
2016,08,15,11,49,17.10
2016,08,15,11,50,17.20
2016,08,15,11,51,17.10
2016,08,15,11,52,17.00
2016,08,15,11,53,16.90
2016,08,15,11,54,17.00
2016,08,15,11,55,17.10
2016,08,15,11,56,17.10
2016,08,15,11,57,17.20
2016,08,15,11,58,17.20
2016,08,15,11,59,17.10
2016,08,15,12,00,17.00
2016,08,15,12,01,16.90
2016,08,15,12,02,16.80
2016,08,15,12,03,16.70
2016,08,15,12,04,16.70
2016,08,15,12,05,16.60
2016,08,15,12,06,16.60
2016,08,15,12,07,16.60
2016,08,15,12,08,16.80
2016,08,15,12,09,16.90
2016,08,15,12,10,17.10
2016,08,15,12,11,17.30
2016,08,15,12,12,17.50
2016,08,15,12,13,17.60
2016,08,15,12,14,17.70
2016,08,15,12,15,17.70
2016,08,15,12,16,17.70
2016,08,15,12,17,17.80
2016,08,15,12,18,17.80
2016,08,15,12,19,17.80
2016,08,15,12,20,17.80
2016,08,15,12,21,17.90
2016,08,15,12,22,18.00
2016,08,15,12,23,18.10
2016,08,15,12,24,18.20
2016,08,15,12,25,18.40
2016,08,15,12,26,18.60
2016,08,15,12,27,18.80
2016,08,15,12,28,19.00
2016,08,15,12,29,19.10
2016,08,15,12,30,19.00
2016,08,15,12,31,18.90
2016,08,15,12,32,18.80
2016,08,15,12,33,18.70
2016,08,15,12,34,18.60
2016,08,15,12,35,18.70
2016,08,15,12,36,18.70
2016,08,15,12,37,18.60
2016,08,15,12,38,18.60
2016,08,15,12,39,18.60
2016,08,15,12,40,18.70
2016,08,15,12,41,18.70
2016,08,15,12,42,18.70
2016,08,15,12,43,18.80
2016,08,15,12,44,19.00
2016,08,15,12,45,19.10
2016,08,15,12,46,19.20
2016,08,15,12,47,19.20
2016,08,15,12,48,19.10
2016,08,15,12,49,19.10
2016,08,15,12,50,19.10
2016,08,15,12,51,19.10
2016,08,15,12,52,19.20
2016,08,15,12,53,19.30
2016,08,15,12,54,19.30
2016,08,15,12,55,19.30
2016,08,15,12,56,19.30
2016,08,15,12,57,19.10
2016,08,15,12,58,19.00
2016,08,15,12,59,19.00
2016,08,15,13,00,19.10
2016,08,15,13,01,19.10
2016,08,15,13,02,19.10
2016,08,15,13,03,19.00
2016,08,15,13,04,18.90
2016,08,15,13,05,18.80
2016,08,15,13,06,18.70
2016,08,15,13,07,18.70
2016,08,15,13,08,18.80
2016,08,15,13,09,18.90
2016,08,15,13,10,19.10
2016,08,15,13,11,19.30
2016,08,15,13,12,19.50
2016,08,15,13,13,19.80
2016,08,15,13,14,20.00
2016,08,15,13,15,20.20
2016,08,15,13,16,20.20
2016,08,15,13,17,20.30
2016,08,15,13,18,20.40
2016,08,15,13,19,20.40
2016,08,15,13,20,20.20
2016,08,15,13,21,19.90
2016,08,15,13,22,19.70
2016,08,15,13,23,19.60
2016,08,15,13,24,19.30
2016,08,15,13,25,19.20
2016,08,15,13,26,19.00
2016,08,15,13,27,18.80
2016,08,15,13,28,18.60
2016,08,15,13,29,18.60
2016,08,15,13,30,18.50
2016,08,15,13,31,18.40
2016,08,15,13,32,18.20
2016,08,15,13,33,18.10
2016,08,15,13,34,18.00
2016,08,15,13,35,18.00
2016,08,15,13,36,17.90
2016,08,15,13,37,17.90
2016,08,15,13,38,17.90
2016,08,15,13,39,17.90
2016,08,15,13,40,17.90
2016,08,15,13,41,18.00
2016,08,15,13,42,18.20
2016,08,15,13,43,18.20
2016,08,15,13,44,18.30
2016,08,15,13,45,18.50
2016,08,15,13,46,18.50
2016,08,15,13,47,18.50
2016,08,15,13,48,18.40
2016,08,15,13,49,18.40
2016,08,15,13,50,18.40
2016,08,15,13,51,18.30
2016,08,15,13,52,18.30
2016,08,15,13,53,18.30
2016,08,15,13,54,18.30
2016,08,15,13,55,18.40
2016,08,15,13,56,18.60
2016,08,15,13,57,18.70
2016,08,15,13,58,18.80
2016,08,15,13,59,18.90
2016,08,15,14,00,18.90
2016,08,15,14,01,19.00
2016,08,15,14,02,18.90
2016,08,15,14,03,18.80
2016,08,15,14,04,18.60
2016,08,15,14,05,18.40
2016,08,15,14,06,18.30
2016,08,15,14,07,18.20
2016,08,15,14,08,18.10
2016,08,15,14,09,17.90
2016,08,15,14,10,17.80
2016,08,15,14,11,17.80
2016,08,15,14,12,17.80
2016,08,15,14,13,17.90
2016,08,15,14,14,18.00
2016,08,15,14,15,18.00
2016,08,15,14,16,18.10
2016,08,15,14,17,18.00
2016,08,15,14,18,17.80
2016,08,15,14,19,17.70
2016,08,15,14,20,17.60
2016,08,15,14,21,17.50
2016,08,15,14,22,17.50
2016,08,15,14,23,17.50
2016,08,15,14,24,17.50
2016,08,15,14,25,17.50
2016,08,15,14,26,17.40
2016,08,15,14,27,17.30
2016,08,15,14,28,17.10
2016,08,15,14,29,17.10
2016,08,15,14,30,17.00
2016,08,15,14,31,17.00
2016,08,15,14,32,16.90
2016,08,15,14,33,16.80
2016,08,15,14,34,16.80
2016,08,15,14,35,16.90
2016,08,15,14,36,16.90
2016,08,15,14,37,16.90
2016,08,15,14,38,17.00
2016,08,15,14,39,17.00
2016,08,15,14,40,17.00
2016,08,15,14,41,17.00
2016,08,15,14,42,17.00
2016,08,15,14,43,17.00
2016,08,15,14,44,17.00
2016,08,15,14,45,17.10
2016,08,15,14,46,17.10
2016,08,15,14,47,17.20
2016,08,15,14,48,17.30
2016,08,15,14,49,17.40
2016,08,15,14,50,17.50
2016,08,15,14,51,17.60
2016,08,15,14,52,17.60
2016,08,15,14,53,17.60
2016,08,15,14,54,17.60
2016,08,15,14,55,17.60
2016,08,15,14,56,17.50
2016,08,15,14,57,17.40
2016,08,15,14,58,17.50
2016,08,15,14,59,17.60
2016,08,15,15,00,17.60
2016,08,15,15,01,17.50
2016,08,15,15,02,17.50
2016,08,15,15,03,17.50
2016,08,15,15,04,17.50
2016,08,15,15,05,17.50
2016,08,15,15,06,17.50
2016,08,15,15,07,17.60
2016,08,15,15,08,17.60
2016,08,15,15,09,17.70
2016,08,15,15,10,17.80
2016,08,15,15,11,17.90
2016,08,15,15,12,18.00
2016,08,15,15,13,18.00
2016,08,15,15,14,18.10
2016,08,15,15,15,18.10
2016,08,15,15,16,18.20
2016,08,15,15,17,18.30
2016,08,15,15,18,18.30
2016,08,15,15,19,18.30
2016,08,15,15,20,18.30
2016,08,15,15,21,18.30
2016,08,15,15,22,18.30
2016,08,15,15,23,18.30
2016,08,15,15,24,18.30
2016,08,15,15,25,18.30
2016,08,15,15,26,18.30
2016,08,15,15,27,18.30
2016,08,15,15,28,18.30
2016,08,15,15,29,18.40
2016,08,15,15,30,18.60
2016,08,15,15,31,18.70
2016,08,15,15,32,18.70
2016,08,15,15,33,18.60
2016,08,15,15,34,18.50
2016,08,15,15,35,18.40
2016,08,15,15,36,18.30
2016,08,15,15,37,18.30
2016,08,15,15,38,18.30
2016,08,15,15,39,18.30
2016,08,15,15,40,18.40
2016,08,15,15,41,18.60
2016,08,15,15,42,18.80
2016,08,15,15,43,18.90
2016,08,15,15,44,19.10
2016,08,15,15,45,19.10
2016,08,15,15,46,19.10
2016,08,15,15,47,19.20
2016,08,15,15,48,19.30
2016,08,15,15,49,19.40
2016,08,15,15,50,19.50
2016,08,15,15,51,19.70
2016,08,15,15,52,19.90
2016,08,15,15,53,20.00
2016,08,15,15,54,20.20
2016,08,15,15,55,20.30
2016,08,15,15,56,20.50
2016,08,15,15,57,20.70
2016,08,15,15,58,21.00
2016,08,15,15,59,21.30
2016,08,15,16,00,21.70
2016,08,15,16,01,22.00
2016,08,15,16,02,22.40
2016,08,15,16,03,22.70
2016,08,15,16,04,22.90
2016,08,15,16,05,23.10
2016,08,15,16,06,23.30
2016,08,15,16,07,23.40
2016,08,15,16,08,23.50
2016,08,15,16,09,23.60
2016,08,15,16,10,23.60
2016,08,15,16,11,23.70
2016,08,15,16,12,23.70
2016,08,15,16,13,23.70
2016,08,15,16,14,23.80
2016,08,15,16,15,23.80
2016,08,15,16,16,23.80
2016,08,15,16,17,23.80
2016,08,15,16,18,23.80
2016,08,15,16,19,23.80
2016,08,15,16,20,23.80
2016,08,15,16,21,23.80
2016,08,15,16,22,23.80
2016,08,15,16,23,23.70
2016,08,15,16,24,23.70
2016,08,15,16,25,23.80
2016,08,15,16,26,23.80
2016,08,15,16,27,23.80
2016,08,15,16,28,23.80
2016,08,15,16,29,23.80
2016,08,15,16,30,23.80
2016,08,15,16,31,23.80
2016,08,15,16,32,23.80
2016,08,15,16,33,23.80
2016,08,15,16,34,23.80
2016,08,15,16,35,23.80
2016,08,15,16,36,23.80
2016,08,15,16,37,23.90
2016,08,15,16,38,23.90
2016,08,15,16,39,24.00
2016,08,15,16,40,24.00
2016,08,15,16,41,24.10
2016,08,15,16,42,24.10
2016,08,15,16,43,24.10
2016,08,15,16,44,24.20
2016,08,15,16,45,24.20
2016,08,15,16,46,24.20
2016,08,15,16,47,24.20
2016,08,15,16,48,24.10
2016,08,15,16,49,24.10
2016,08,15,16,50,24.10
2016,08,15,16,51,24.10
2016,08,15,16,52,24.10
2016,08,15,16,53,24.10
2016,08,15,16,54,24.10
2016,08,15,16,55,24.20
2016,08,15,16,56,24.20
2016,08,15,16,57,24.20
2016,08,15,16,58,24.20
2016,08,15,16,59,24.10
2016,08,15,17,00,24.20
2016,08,15,17,01,24.20
2016,08,15,17,02,24.30
2016,08,15,17,03,24.30
2016,08,15,17,04,24.30
2016,08,15,17,05,24.30
2016,08,15,17,06,24.40
2016,08,15,17,07,24.40
2016,08,15,17,08,24.30
2016,08,15,17,09,24.20
2016,08,15,17,10,24.10
2016,08,15,17,11,24.10
2016,08,15,17,12,24.10
2016,08,15,17,13,24.10
2016,08,15,17,14,24.20
2016,08,15,17,15,24.20
2016,08,15,17,16,24.20
2016,08,15,17,17,24.20
2016,08,15,17,18,24.20
2016,08,15,17,19,24.10